^^
Your Local Weather - Clay, NY Station Historical Data
Daily Summary for March 29, 2017 Units:  English    Metric   Both
« Previous Day
Next Day »
Daily Weekly Monthly Yearly Custom
  High: Low: Average:
Temperature: 46.0 °F 29.5 °F 38.2 °F
Dew Point: 34.9 °F 23.8 °F 28.1 °F
Humidity: 92% 44% 69%
Wind Speed: 8.0mph 0.0mph 2.7mph
Wind Gust: 14.0mph - -
Wind- - West
Pressure: 30.28 in 30.08 in -
Precipitation: 0.00 in    
Historical Graphs
 
 
Tabular Data for March 29, 2017
Time Temperature Dew Point Pressure Wind Wind Speed Wind Gust Humidity Rainfall Rate (Hourly) solar
00:04 39.1 °F 34.7 °F 30.08 in Calm   1.0 mph 84% 0.00 in 0 W/m2
00:10 39.0 °F 34.9 °F 30.08 in Calm     85% 0.00 in 0 W/m2
00:16 38.9 °F 34.8 °F 30.08 in Calm   1.0 mph 85% 0.00 in 0 W/m2
00:22 38.8 °F 34.7 °F 30.08 in Calm   1.0 mph 85% 0.00 in 0 W/m2
00:28 38.8 °F 34.7 °F 30.08 in NNW 1.0 mph 1.0 mph 85% 0.00 in 0 W/m2
00:34 38.8 °F 34.7 °F 30.09 in NNW 1.0 mph 1.0 mph 85% 0.00 in 0 W/m2
00:40 38.8 °F 34.7 °F 30.09 in Calm   1.0 mph 85% 0.00 in 0 W/m2
00:46 38.7 °F 34.6 °F 30.09 in Calm   3.0 mph 85% 0.00 in 0 W/m2
00:52 38.6 °F 34.5 °F 30.09 in NNW 1.0 mph 1.0 mph 85% 0.00 in 0 W/m2
00:58 38.6 °F 34.5 °F 30.09 in NNW 1.0 mph 1.0 mph 85% 0.00 in 0 W/m2
01:04 38.6 °F 34.5 °F 30.09 in NNW 1.0 mph 2.0 mph 85% 0.00 in 0 W/m2
01:10 38.5 °F 34.4 °F 30.09 in Calm     85% 0.00 in 0 W/m2
01:16 38.5 °F 34.4 °F 30.10 in Calm   1.0 mph 85% 0.00 in 0 W/m2
01:22 38.5 °F 34.4 °F 30.09 in Calm     85% 0.00 in 0 W/m2
01:28 38.5 °F 34.4 °F 30.09 in Calm   2.0 mph 85% 0.00 in 0 W/m2
01:34 38.4 °F 34.3 °F 30.10 in Calm   2.0 mph 85% 0.00 in 0 W/m2
01:40 38.4 °F 34.3 °F 30.10 in NNW 1.0 mph 1.0 mph 85% 0.00 in 0 W/m2
01:46 38.4 °F 34.3 °F 30.10 in Calm   2.0 mph 85% 0.00 in 0 W/m2
01:52 38.4 °F 34.3 °F 30.10 in Calm     85% 0.00 in 0 W/m2
01:58 38.3 °F 34.2 °F 30.10 in Calm   2.0 mph 85% 0.00 in 0 W/m2
02:04 38.3 °F 34.2 °F 30.10 in Calm     85% 0.00 in 0 W/m2
02:10 38.3 °F 34.2 °F 30.10 in Calm   1.0 mph 85% 0.00 in 0 W/m2
02:16 38.2 °F 34.1 °F 30.11 in Calm   1.0 mph 85% 0.00 in 0 W/m2
02:22 38.2 °F 34.1 °F 30.10 in Calm   1.0 mph 85% 0.00 in 0 W/m2
02:28 38.2 °F 34.1 °F 30.11 in Calm   1.0 mph 85% 0.00 in 0 W/m2
02:34 38.2 °F 33.8 °F 30.10 in Calm     84% 0.00 in 0 W/m2
02:40 38.2 °F 33.8 °F 30.11 in Calm     84% 0.00 in 0 W/m2
02:46 38.2 °F 33.8 °F 30.11 in Calm     84% 0.00 in 0 W/m2
02:52 38.2 °F 33.8 °F 30.11 in Calm     84% 0.00 in 0 W/m2
02:58 38.2 °F 33.8 °F 30.11 in Calm     84% 0.00 in 0 W/m2
03:04 38.2 °F 33.8 °F 30.11 in Calm   2.0 mph 84% 0.00 in 0 W/m2
03:10 38.1 °F 33.7 °F 30.11 in Calm     84% 0.00 in 0 W/m2
03:16 38.1 °F 33.7 °F 30.11 in Calm     84% 0.00 in 0 W/m2
03:22 38.1 °F 33.7 °F 30.11 in Calm     84% 0.00 in 0 W/m2
03:28 37.9 °F 33.5 °F 30.11 in Calm     84% 0.00 in 0 W/m2
03:34 37.5 °F 33.1 °F 30.11 in Calm     84% 0.00 in 0 W/m2
03:40 37.1 °F 32.7 °F 30.11 in Calm     84% 0.00 in 0 W/m2
03:46 36.8 °F 32.4 °F 30.11 in Calm     84% 0.00 in 0 W/m2
03:52 36.4 °F 32.0 °F 30.12 in Calm     84% 0.00 in 0 W/m2
03:58 36.0 °F 31.9 °F 30.12 in Calm     85% 0.00 in 0 W/m2
04:04 35.7 °F 31.6 °F 30.12 in Calm     85% 0.00 in 0 W/m2
04:10 35.4 °F 31.6 °F 30.12 in Calm     86% 0.00 in 0 W/m2
04:16 35.2 °F 31.4 °F 30.12 in Calm     86% 0.00 in 0 W/m2
04:22 34.9 °F 31.1 °F 30.12 in Calm     86% 0.00 in 0 W/m2
04:28 34.6 °F 31.1 °F 30.12 in Calm     87% 0.00 in 0 W/m2
04:34 34.4 °F 30.9 °F 30.12 in Calm     87% 0.00 in 0 W/m2
04:40 34.1 °F 30.6 °F 30.12 in Calm     87% 0.00 in 0 W/m2
04:46 33.8 °F 30.6 °F 30.13 in Calm     88% 0.00 in 0 W/m2
04:52 33.6 °F 30.4 °F 30.13 in Calm     88% 0.00 in 0 W/m2
04:58 33.3 °F 30.1 °F 30.13 in Calm     88% 0.00 in 0 W/m2
05:04 33.0 °F 29.8 °F 30.13 in Calm     88% 0.00 in 0 W/m2
05:10 32.7 °F 29.5 °F 30.14 in Calm     88% 0.00 in 0 W/m2
05:12 32.7 °F 29.5 °F 30.14 in Calm     88% 0.00 in 0 W/m2
05:18 32.4 °F 29.2 °F 30.14 in Calm     88% 0.00 in 0 W/m2
05:24 32.1 °F 28.9 °F 30.14 in Calm     88% 0.00 in 0 W/m2
05:30 31.9 °F 29.0 °F 30.14 in Calm     89% 0.00 in 0 W/m2
05:36 31.8 °F 28.9 °F 30.14 in Calm     89% 0.00 in 0 W/m2
05:42 31.9 °F 29.0 °F 30.14 in Calm     89% 0.00 in 0 W/m2
05:48 31.7 °F 29.1 °F 30.14 in Calm     90% 0.00 in 0 W/m2
05:54 31.5 °F 28.6 °F 30.14 in Calm     89% 0.00 in 0 W/m2
06:00 31.2 °F 28.6 °F 30.14 in Calm     90% 0.00 in 0 W/m2
06:06 31.2 °F 28.6 °F 30.14 in Calm     90% 0.00 in 0 W/m2
06:12 30.9 °F 28.3 °F 30.15 in Calm     90% 0.00 in 0 W/m2
06:18 30.6 °F 28.0 °F 30.15 in Calm     90% 0.00 in 0 W/m2
06:24 30.4 °F 27.8 °F 30.15 in Calm     90% 0.00 in 0 W/m2
06:30 30.2 °F 27.6 °F 30.15 in Calm     90% 0.00 in 0 W/m2
06:36 30.2 °F 27.6 °F 30.15 in Calm     90% 0.00 in 0 W/m2
06:42 30.5 °F 27.9 °F 30.15 in Calm     90% 0.00 in 0 W/m2
06:54 30.4 °F 28.1 °F 30.16 in Calm     91% 0.00 in 5 W/m2
07:00 30.3 °F 28.0 °F 30.16 in Calm     91% 0.00 in 9 W/m2
07:06 30.2 °F 27.9 °F 30.16 in Calm     91% 0.00 in 12 W/m2
07:12 30.1 °F 27.8 °F 30.17 in Calm     91% 0.00 in 16 W/m2
07:18 30.1 °F 27.8 °F 30.17 in Calm     91% 0.00 in 19 W/m2
07:24 30.1 °F 27.8 °F 30.17 in Calm     91% 0.00 in 23 W/m2
07:30 30.2 °F 27.9 °F 30.17 in Calm     91% 0.00 in 28 W/m2
07:36 30.5 °F 28.2 °F 30.17 in Calm     91% 0.00 in 37 W/m2
07:42 31.1 °F 29.0 °F 30.17 in Calm     92% 0.00 in 47 W/m2
07:48 31.8 °F 29.7 °F 30.17 in Calm     92% 0.00 in 88 W/m2
07:54 32.5 °F 30.4 °F 30.18 in Calm   1.0 mph 92% 0.00 in 118 W/m2
08:00 33.1 °F 31.0 °F 30.18 in Calm     92% 0.00 in 141 W/m2
08:06 33.7 °F 31.6 °F 30.18 in Calm   2.0 mph 92% 0.00 in 139 W/m2
08:12 34.3 °F 32.2 °F 30.18 in NW 1.0 mph 1.0 mph 92% 0.00 in 128 W/m2
08:18 34.8 °F 32.4 °F 30.19 in NW 1.0 mph 4.0 mph 91% 0.00 in 176 W/m2
08:24 35.3 °F 32.4 °F 30.19 in NW 2.0 mph 5.0 mph 89% 0.00 in 195 W/m2
08:30 35.8 °F 32.0 °F 30.19 in NNE 4.0 mph 4.0 mph 86% 0.00 in 141 W/m2
08:36 36.1 °F 31.7 °F 30.19 in NNW 4.0 mph 7.0 mph 84% 0.00 in 174 W/m2
08:42 36.4 °F 31.1 °F 30.19 in NW 4.0 mph 5.0 mph 81% 0.00 in 211 W/m2
08:48 36.8 °F 31.2 °F 30.19 in NNW 4.0 mph 5.0 mph 80% 0.00 in 169 W/m2
08:54 37.1 °F 31.2 °F 30.19 in NW 4.0 mph 7.0 mph 79% 0.00 in 195 W/m2
09:00 37.6 °F 31.7 °F 30.19 in NNW 4.0 mph 4.0 mph 79% 0.00 in 246 W/m2
09:06 38.0 °F 31.7 °F 30.20 in NW 3.0 mph 6.0 mph 78% 0.00 in 232 W/m2
09:12 38.1 °F 31.2 °F 30.20 in North 4.0 mph 8.0 mph 76% 0.00 in 253 W/m2
09:18 38.5 °F 31.6 °F 30.20 in NW 4.0 mph 8.0 mph 76% 0.00 in 227 W/m2
09:24 38.7 °F 31.5 °F 30.20 in NNE 4.0 mph 6.0 mph 75% 0.00 in 279 W/m2
09:30 39.0 °F 31.1 °F 30.20 in NNW 5.0 mph 5.0 mph 73% 0.00 in 302 W/m2
09:36 39.2 °F 30.6 °F 30.20 in NW 6.0 mph 7.0 mph 71% 0.00 in 311 W/m2
09:42 39.7 °F 31.1 °F 30.20 in NNE 5.0 mph 6.0 mph 71% 0.00 in 452 W/m2
09:48 40.5 °F 31.5 °F 30.20 in NNW 4.0 mph 7.0 mph 70% 0.00 in 510 W/m2
09:54 40.5 °F 30.4 °F 30.21 in NNW 5.0 mph 8.0 mph 67% 0.00 in 526 W/m2
10:00 41.0 °F 30.1 °F 30.21 in NW 6.0 mph 6.0 mph 65% 0.00 in 543 W/m2
10:06 41.4 °F 30.1 °F 30.21 in NNW 6.0 mph 6.0 mph 64% 0.00 in 561 W/m2
10:12 42.0 °F 30.7 °F 30.21 in NNW 5.0 mph 6.0 mph 64% 0.00 in 580 W/m2
10:18 42.4 °F 28.7 °F 30.21 in North 5.0 mph 6.0 mph 58% 0.00 in 598 W/m2
10:24 42.3 °F 27.7 °F 30.21 in North 6.0 mph 11.0 mph 56% 0.00 in 617 W/m2
10:30 42.5 °F 28.3 °F 30.21 in North 6.0 mph 6.0 mph 57% 0.00 in 629 W/m2
10:36 42.7 °F 26.7 °F 30.20 in NNW 7.0 mph 7.0 mph 53% 0.00 in 652 W/m2
10:42 43.7 °F 27.2 °F 30.20 in North 5.0 mph 6.0 mph 52% 0.00 in 661 W/m2
10:48 43.0 °F 27.0 °F 30.20 in North 5.0 mph 9.0 mph 53% 0.00 in 675 W/m2
10:54 43.8 °F 28.2 °F 30.21 in NW 6.0 mph 6.0 mph 54% 0.00 in 691 W/m2
11:00 44.3 °F 28.2 °F 30.21 in NW 5.0 mph 5.0 mph 53% 0.00 in 714 W/m2
11:06 44.4 °F 26.4 °F 30.20 in North 5.0 mph 12.0 mph 49% 0.00 in 712 W/m2
11:12 44.2 °F 27.2 °F 30.20 in North 7.0 mph 11.0 mph 51% 0.00 in 726 W/m2
11:18 44.1 °F 26.1 °F 30.20 in NNW 7.0 mph 11.0 mph 49% 0.00 in 754 W/m2
11:24 44.6 °F 26.1 °F 30.20 in NNW 7.0 mph 12.0 mph 48% 0.00 in 782 W/m2
11:30 45.3 °F 27.7 °F 30.20 in NNW 7.0 mph 7.0 mph 50% 0.00 in 765 W/m2
11:36 44.7 °F 26.7 °F 30.20 in NNW 6.0 mph 10.0 mph 49% 0.00 in 886 W/m2
11:42 44.9 °F 25.9 °F 30.20 in NNW 6.0 mph 8.0 mph 47% 0.00 in 886 W/m2
11:48 44.9 °F 28.3 °F 30.20 in NNW 6.0 mph 8.0 mph 52% 0.00 in 504 W/m2
11:54 44.8 °F 27.3 °F 30.21 in NNW 5.0 mph 8.0 mph 50% 0.00 in 719 W/m2
12:00 45.1 °F 28.0 °F 30.22 in NNW 6.0 mph 6.0 mph 51% 0.00 in 545 W/m2
12:06 45.3 °F 27.7 °F 30.22 in NW 6.0 mph 6.0 mph 50% 0.00 in 649 W/m2
12:12 45.2 °F 26.7 °F 30.22 in NW 5.0 mph 7.0 mph 48% 0.00 in 531 W/m2
12:18 45.0 °F 27.5 °F 30.22 in NW 6.0 mph 14.0 mph 50% 0.00 in 547 W/m2
12:24 44.5 °F 24.5 °F 30.22 in NW 6.0 mph 6.0 mph 45% 0.00 in 529 W/m2
12:30 45.0 °F 28.9 °F 30.22 in NW 6.0 mph 8.0 mph 53% 0.00 in 598 W/m2
12:36 44.9 °F 25.3 °F 30.22 in North 6.0 mph 9.0 mph 46% 0.00 in 621 W/m2
12:42 44.8 °F 26.3 °F 30.22 in West 7.0 mph 7.0 mph 48% 0.00 in 963 W/m2
12:48 45.2 °F 26.7 °F 30.22 in NNW 6.0 mph 10.0 mph 48% 0.00 in 452 W/m2
13:00 45.1 °F 25.5 °F 30.22 in NNE 6.0 mph 7.0 mph 46% 0.00 in 700 W/m2
13:06 44.8 °F 25.8 °F 30.22 in NNE 6.0 mph 9.0 mph 47% 0.00 in 650 W/m2
13:12 45.1 °F 25.0 °F 30.22 in NNW 7.0 mph 8.0 mph 45% 0.00 in 469 W/m2
13:18 44.7 °F 24.6 °F 30.22 in North 8.0 mph 10.0 mph 45% 0.00 in 923 W/m2
13:24 44.9 °F 25.9 °F 30.22 in NNE 8.0 mph 10.0 mph 47% 0.00 in 831 W/m2
13:30 45.1 °F 26.6 °F 30.22 in North 8.0 mph 8.0 mph 48% 0.00 in 863 W/m2
13:36 44.8 °F 24.2 °F 30.22 in NW 7.0 mph 13.0 mph 44% 0.00 in 846 W/m2
13:42 45.2 °F 26.1 °F 30.22 in WNW 7.0 mph 8.0 mph 47% 0.00 in 868 W/m2
13:48 45.2 °F 26.1 °F 30.22 in NW 6.0 mph 11.0 mph 47% 0.00 in 763 W/m2
13:54 45.3 °F 25.7 °F 30.22 in NNW 7.0 mph 11.0 mph 46% 0.00 in 824 W/m2
14:00 45.0 °F 24.9 °F 30.22 in North 7.0 mph 8.0 mph 45% 0.00 in 833 W/m2
14:06 45.3 °F 26.7 °F 30.22 in West 7.0 mph 13.0 mph 48% 0.00 in 812 W/m2
14:12 45.6 °F 25.5 °F 30.21 in NNW 6.0 mph 6.0 mph 45% 0.00 in 868 W/m2
14:18 45.5 °F 27.9 °F 30.21 in NNW 6.0 mph 9.0 mph 50% 0.00 in 916 W/m2
14:26 44.7 °F 26.7 °F 30.22 in WNW 8.0 mph 10.0 mph 49% 0.00 in 427 W/m2
14:32 43.8 °F 25.4 °F 30.21 in NNW 8.0 mph 8.0 mph 48% 0.00 in 304 W/m2
14:38 45.5 °F 25.9 °F 30.21 in North 7.0 mph 10.0 mph 46% 0.00 in 798 W/m2
14:44 45.7 °F 26.1 °F 30.21 in NW 7.0 mph 9.0 mph 46% 0.00 in 786 W/m2
14:50 45.4 °F 27.3 °F 30.22 in North 6.0 mph 11.0 mph 49% 0.00 in 828 W/m2
14:56 45.2 °F 26.1 °F 30.22 in NW 7.0 mph 11.0 mph 47% 0.00 in 768 W/m2
15:02 44.7 °F 26.2 °F 30.22 in North 7.0 mph 7.0 mph 48% 0.00 in 693 W/m2
15:08 44.6 °F 25.1 °F 30.22 in NNE 8.0 mph 10.0 mph 46% 0.00 in 846 W/m2
15:14 45.5 °F 27.9 °F 30.22 in NNW 8.0 mph 8.0 mph 50% 0.00 in 893 W/m2
15:20 46.0 °F 27.4 °F 30.21 in NNW 7.0 mph 7.0 mph 48% 0.00 in 867 W/m2
15:26 44.9 °F 25.9 °F 30.21 in WNW 7.0 mph 10.0 mph 47% 0.00 in 807 W/m2
15:32 44.4 °F 24.9 °F 30.21 in NNW 7.0 mph 7.0 mph 46% 0.00 in 306 W/m2
15:38 44.1 °F 26.6 °F 30.21 in NW 6.0 mph 7.0 mph 50% 0.00 in 301 W/m2
15:44 44.0 °F 26.5 °F 30.21 in NW 5.0 mph 5.0 mph 50% 0.00 in 360 W/m2
15:50 44.1 °F 26.1 °F 30.22 in NNW 5.0 mph 5.0 mph 49% 0.00 in 413 W/m2
15:56 44.9 °F 26.9 °F 30.21 in NW 4.0 mph 6.0 mph 49% 0.00 in 334 W/m2
16:03 44.1 °F 27.1 °F 30.22 in NW 5.0 mph 7.0 mph 51% 0.00 in 265 W/m2
16:08 43.8 °F 26.3 °F 30.21 in NW 6.0 mph 11.0 mph 50% 0.00 in 204 W/m2
16:14 43.1 °F 25.7 °F 30.22 in NW 6.0 mph 13.0 mph 50% 0.00 in 165 W/m2
16:20 42.9 °F 26.5 °F 30.22 in NW 7.0 mph 9.0 mph 52% 0.00 in 232 W/m2
16:26 42.9 °F 25.5 °F 30.22 in NNE 6.0 mph 14.0 mph 50% 0.00 in 230 W/m2
16:32 42.7 °F 25.3 °F 30.22 in North 7.0 mph 11.0 mph 50% 0.00 in 190 W/m2
16:38 42.4 °F 25.1 °F 30.22 in NNW 7.0 mph 11.0 mph 50% 0.00 in 179 W/m2
16:44 42.4 °F 25.5 °F 30.22 in NW 7.0 mph 9.0 mph 51% 0.00 in 171 W/m2
16:50 42.2 °F 25.3 °F 30.22 in NNW 7.0 mph 10.0 mph 51% 0.00 in 209 W/m2
16:56 42.1 °F 25.7 °F 30.23 in NNW 7.0 mph 10.0 mph 52% 0.00 in 174 W/m2
17:02 42.3 °F 25.9 °F 30.23 in NW 6.0 mph 8.0 mph 52% 0.00 in 197 W/m2
17:08 42.0 °F 25.2 °F 30.23 in NNW 7.0 mph 9.0 mph 51% 0.00 in 160 W/m2
17:14 41.8 °F 25.4 °F 30.23 in NNW 7.0 mph 7.0 mph 52% 0.00 in 148 W/m2
17:26 41.7 °F 25.4 °F 30.24 in NNW 6.0 mph 10.0 mph 52% 0.00 in 148 W/m2
17:32 41.6 °F 25.7 °F 30.24 in NW 6.0 mph 9.0 mph 53% 0.00 in 144 W/m2
17:38 41.5 °F 25.6 °F 30.24 in NW 5.0 mph 9.0 mph 53% 0.00 in 139 W/m2
17:44 41.5 °F 25.6 °F 30.24 in NNW 5.0 mph 6.0 mph 53% 0.00 in 199 W/m2
17:50 41.3 °F 24.5 °F 30.24 in North 5.0 mph 5.0 mph 51% 0.00 in 113 W/m2
17:56 41.2 °F 25.3 °F 30.24 in NW 5.0 mph 8.0 mph 53% 0.00 in 114 W/m2
18:03 41.1 °F 25.3 °F 30.25 in North 5.0 mph 6.0 mph 53% 0.00 in 116 W/m2
18:08 41.0 °F 24.2 °F 30.25 in NNW 6.0 mph 11.0 mph 51% 0.00 in 111 W/m2
18:14 40.9 °F 24.6 °F 30.25 in NNW 6.0 mph 7.0 mph 52% 0.00 in 81 W/m2
18:20 40.7 °F 25.3 °F 30.25 in NW 5.0 mph 6.0 mph 54% 0.00 in 77 W/m2
18:26 40.7 °F 24.4 °F 30.26 in NW 5.0 mph 6.0 mph 52% 0.00 in 60 W/m2
18:32 40.5 °F 24.2 °F 30.26 in NNE 5.0 mph 10.0 mph 52% 0.00 in 54 W/m2
18:38 40.3 °F 24.1 °F 30.26 in NNW 6.0 mph 10.0 mph 52% 0.00 in 39 W/m2
18:44 40.2 °F 24.4 °F 30.26 in NW 5.0 mph 6.0 mph 53% 0.00 in 30 W/m2
18:50 39.9 °F 24.1 °F 30.27 in North 4.0 mph 4.0 mph 53% 0.00 in 33 W/m2
18:56 39.8 °F 24.5 °F 30.27 in North 3.0 mph 4.0 mph 54% 0.00 in 28 W/m2
19:02 39.6 °F 24.3 °F 30.27 in NW 2.0 mph 5.0 mph 54% 0.00 in 19 W/m2
19:08 39.4 °F 24.1 °F 30.27 in NW 3.0 mph 6.0 mph 54% 0.00 in 14 W/m2
19:14 39.2 °F 24.4 °F 30.27 in NNW 3.0 mph 4.0 mph 55% 0.00 in 9 W/m2
19:20 38.9 °F 24.1 °F 30.27 in NW 3.0 mph 3.0 mph 55% 0.00 in 5 W/m2
19:26 38.8 °F 24.4 °F 30.27 in NNW 3.0 mph 9.0 mph 56% 0.00 in 0 W/m2
19:32 38.5 °F 24.1 °F 30.27 in NW 2.0 mph 2.0 mph 56% 0.00 in 0 W/m2
19:38 38.3 °F 24.4 °F 30.27 in NNW 2.0 mph 3.0 mph 57% 0.00 in 0 W/m2
19:44 38.1 °F 24.2 °F 30.27 in NNW 2.0 mph 2.0 mph 57% 0.00 in 0 W/m2
19:50 37.9 °F 24.0 °F 30.28 in NNW 1.0 mph 1.0 mph 57% 0.00 in 0 W/m2
19:56 37.7 °F 23.8 °F 30.28 in NNW 1.0 mph 1.0 mph 57% 0.00 in 0 W/m2
20:02 37.5 °F 24.5 °F 30.27 in Calm     59% 0.00 in 0 W/m2
20:08 37.2 °F 24.2 °F 30.27 in Calm     59% 0.00 in 0 W/m2
20:14 37.0 °F 24.4 °F 30.27 in Calm     60% 0.00 in 0 W/m2
20:20 36.7 °F 24.1 °F 30.28 in Calm     60% 0.00 in 0 W/m2
20:26 36.4 °F 24.2 °F 30.28 in Calm     61% 0.00 in 0 W/m2
20:32 36.2 °F 24.4 °F 30.28 in Calm     62% 0.00 in 0 W/m2
20:38 36.1 °F 24.3 °F 30.28 in Calm     62% 0.00 in 0 W/m2
20:44 35.9 °F 24.5 °F 30.28 in Calm     63% 0.00 in 0 W/m2
20:50 35.7 °F 24.7 °F 30.28 in Calm     64% 0.00 in 0 W/m2
20:56 35.4 °F 24.4 °F 30.28 in Calm     64% 0.00 in 0 W/m2
21:02 35.1 °F 24.5 °F 30.28 in Calm     65% 0.00 in 0 W/m2
21:08 34.9 °F 24.3 °F 30.28 in Calm     65% 0.00 in 0 W/m2
21:14 34.6 °F 24.8 °F 30.28 in Calm     67% 0.00 in 0 W/m2
21:20 34.3 °F 24.8 °F 30.28 in Calm     68% 0.00 in 0 W/m2
21:26 34.0 °F 24.5 °F 30.28 in Calm     68% 0.00 in 0 W/m2
21:32 33.6 °F 24.5 °F 30.28 in Calm     69% 0.00 in 0 W/m2
21:38 33.2 °F 24.5 °F 30.28 in Calm     70% 0.00 in 0 W/m2
21:44 33.0 °F 24.6 °F 30.28 in Calm     71% 0.00 in 0 W/m2
21:50 32.7 °F 24.3 °F 30.28 in Calm     71% 0.00 in 0 W/m2
21:56 32.4 °F 24.4 °F 30.28 in Calm     72% 0.00 in 0 W/m2
22:02 32.3 °F 24.6 °F 30.28 in Calm     73% 0.00 in 0 W/m2
22:08 32.1 °F 24.7 °F 30.28 in Calm     74% 0.00 in 0 W/m2
22:14 32.0 °F 25.0 °F 30.28 in Calm     75% 0.00 in 0 W/m2
22:20 31.7 °F 24.7 °F 30.27 in Calm     75% 0.00 in 0 W/m2
22:26 31.5 °F 24.8 °F 30.27 in Calm     76% 0.00 in 0 W/m2
22:32 31.4 °F 24.7 °F 30.27 in Calm     76% 0.00 in 0 W/m2
22:38 31.1 °F 24.7 °F 30.27 in Calm     77% 0.00 in 0 W/m2
22:44 30.8 °F 24.4 °F 30.27 in Calm     77% 0.00 in 0 W/m2
22:50 30.6 °F 24.9 °F 30.27 in Calm     79% 0.00 in 0 W/m2
22:56 30.5 °F 25.1 °F 30.27 in Calm     80% 0.00 in 0 W/m2
23:02 30.4 °F 25.3 °F 30.27 in Calm     81% 0.00 in 0 W/m2
23:08 30.3 °F 25.2 °F 30.27 in Calm     81% 0.00 in 0 W/m2
23:14 30.1 °F 25.3 °F 30.27 in Calm     82% 0.00 in 0 W/m2
23:20 29.9 °F 25.1 °F 30.27 in Calm     82% 0.00 in 0 W/m2
23:26 29.8 °F 25.0 °F 30.27 in Calm     82% 0.00 in 0 W/m2
23:32 29.6 °F 24.8 °F 30.27 in Calm     82% 0.00 in 0 W/m2
23:38 29.5 °F 25.0 °F 30.27 in Calm     83% 0.00 in 0 W/m2
23:44 29.7 °F 25.2 °F 30.26 in Calm     83% 0.00 in 0 W/m2
23:50 29.6 °F 25.4 °F 30.26 in Calm     84% 0.00 in 0 W/m2
23:56 29.5 °F 25.3 °F 30.26 in Calm     84% 0.00 in 0 W/m2
Country Meadow, Clay, NY, USA
Compliments of Weather Underground - 2 mb